Wind_Speed
10 9 9 8 8 7 6 6 5 5 5 5 5 5 5 6 6 5 5 4 3 3 3 3 3 3 4 6 6 7 7 8 8 8 7 7 8 8 8 8 8 7 7 6 5 4 4 3 3
10 10 9 9 9 8 7 6 6 5 5 6 6 5 5 6 6 6 5 4 3 2 2 2 2 3 3 5 6 6 6 7 7 7 8 8 8 8 8 8 8 8 7 7 5 5 4 4 4
10 10 10 9 9 8 7 6 7 4 5 5 5 5 6 7 6 6 5 4 3 2 1 1 1 2 2 4 5 6 6 6 7 7 8 8 8 8 8 8 9 8 8 7 6 5 4 4 4
11 11 11 10 9 8 8 7 6 6 5 5 5 5 6 7 6 5 5 4 3 2 2 1 1 1 2 3 5 5 6 6 6 7 7 8 8 8 8 8 8 8 8 7 6 5 4 4 4
13 12 11 11 10 10 8 8 8 7 6 5 6 6 6 5 5 6 5 4 3 3 2 1 0 1 1 2 4 4 5 5 6 6 7 7 7 8 8 8 8 8 8 7 6 5 5 4 4
14 13 12 12 11 9 9 9 9 8 7 6 6 6 6 6 5 5 5 4 3 3 3 1 0 0 0 2 3 4 4 5 5 6 6 7 7 8 8 8 8 8 8 8 7 6 5 4 4
15 14 13 12 11 10 9 9 8 8 8 7 7 6 6 6 6 5 5 5 4 4 3 2 0 1 1 1 2 3 4 4 5 5 6 7 7 8 8 8 8 8 8 8 7 6 5 4 4
15 15 13 13 12 11 10 9 8 8 8 8 7 7 7 6 6 6 5 4 4 4 3 3 1 0 1 1 2 3 3 4 5 5 6 6 7 8 8 8 8 8 8 8 7 6 5 4 4
15 15 14 13 13 12 11 10 9 8 9 8 8 7 7 7 7 6 5 5 5 4 3 3 2 1 1 1 2 3 3 4 4 5 6 6 7 8 8 8 8 8 8 8 7 6 5 4 4
15 14 14 13 12 12 12 11 9 9 9 10 9 8 8 7 7 7 6 6 6 5 4 4 3 2 1 2 2 3 3 3 4 5 5 6 7 8 8 8 8 8 8 7 7 6 5 4 4
15 15 14 13 13 12 12 12 11 10 10 11 10 9 9 8 8 8 7 6 6 6 5 4 3 2 2 3 3 3 3 3 4 5 5 6 6 7 8 8 8 8 7 7 6 6 5 4 4
15 14 14 14 13 13 13 13 12 11 11 11 11 10 10 10 9 9 8 7 6 6 5 4 4 3 3 3 3 3 3 3 4 4 5 6 6 6 7 8 8 8 8 7 7 6 5 4 4
15 14 14 13 13 13 13 12 11 11 12 12 12 11 11 11 10 9 8 8 7 6 6 5 4 3 3 3 3 3 3 3 3 3 4 5 6 6 7 7 7 8 8 7 7 6 5 5 4
14 13 13 13 13 14 13 12 11 10 11 11 12 12 11 11 10 10 9 9 8 7 7 6 5 4 4 4 4 3 3 3 3 3 4 5 5 6 7 7 8 8 8 7 7 6 5 4 4
14 14 14 14 13 14 13 13 12 11 10 12 12 12 12 12 11 11 10 10 9 9 8 7 6 5 5 5 4 4 3 3 3 3 3 4 5 5 6 7 8 8 7 7 7 6 5 5 4
13 14 14 14 15 14 13 12 12 12 11 11 12 13 13 12 12 11 11 11 10 10 9 8 7 6 6 5 5 5 4 4 4 3 3 4 5 5 6 7 7 7 7 7 7 6 5 5 5
12 12 13 14 14 14 14 12 12 12 12 12 12 13 13 13 11 11 11 11 11 10 10 9 8 7 6 6 6 5 5 4 4 4 4 4 5 5 6 6 7 7 7 7 7 6 6 5 5
12 12 12 13 13 12 13 13 13 13 14 13 13 14 14 13 12 12 11 11 11 10 10 10 8 8 8 7 6 6 5 5 5 5 5 4 5 5 6 6 7 7 7 7 7 6 6 6 6
12 12 12 12 12 13 14 14 13 13 14 14 14 14 15 14 13 12 12 11 11 11 11 10 9 8 8 8 7 7 6 6 6 6 6 6 6 6 6 6 7 7 7 7 7 6 6 6 6
11 12 12 13 12 12 13 14 14 13 13 14 14 15 15 15 14 13 12 12 12 12 12 11 10 9 9 8 7 7 7 7 7 6 6 6 6 7 7 7 7 8 7 7 7 6 6 6 7
12 11 11 12 12 12 13 13 14 14 14 14 14 15 15 15 16 15 15 14 13 13 12 12 11 10 9 9 8 8 7 7 7 6 6 7 7 7 7 7 7 7 7 7 7 7 7 7 7
11 11 11 12 11 11 12 12 13 13 14 14 14 14 15 15 16 15 15 14 14 13 13 12 11 10 10 9 9 9 8 8 7 7 7 7 7 7 7 7 7 7 7 7 7 7 7 8 8
10 10 10 11 11 12 12 13 12 13 14 14 14 14 15 15 15 15 15 14 14 13 12 12 12 11 11 10 10 9 9 9 8 8 8 8 7 7 7 8 8 8 7 7 7 8 9 9 9
10 10 10 10 11 12 12 13 12 12 13 14 13 14 15 15 15 15 14 13 13 13 13 12 12 11 11 11 10 10 9 9 9 9 8 8 8 8 8 8 8 8 9 9 9 9 10 10 10
9 10 11 11 12 12 12 12 12 13 12 13 13 14 14 15 14 14 14 14 14 13 13 12 12 12 11 11 10 10 10 10 10 10 9 9 9 9 10 9 10 10 10 10 10 10 10 10 11
10 10 11 11 11 11 11 11 10 11 11 12 13 13 13 14 14 14 14 14 14 13 13 13 12 12 12 11 11 11 10 10 10 10 10 10 10 11 11 11 11 12 11 11 11 11 11 11 12
9 9 9 10 10 10 10 9 9 10 11 10 11 12 12 13 13 13 14 14 14 13 13 13 12 12 11 11 11 11 11 11 11 11 11 12 12 12 12 13 13 13 13 13 12 13 13 13 13
9 10 9 10 10 9 8 8 9 10 11 11 11 11 12 13 13 13 13 13 13 13 12 12 11 11 12 11 11 12 11 11 12 12 13 13 13 13 14 14 14 14 14 14 14 14 15 15 15
9 9 9 9 9 9 7 7 8 9 10 11 11 11 12 12 12 12 13 13 13 13 13 12 12 12 12 12 12 12 12 12 13 13 14 14 14 14 15 15 15 15 15 16 16 16 16 17 17
9 9 9 10 9 8 7 6 7 8 9 9 10 11 12 13 13 13 13 13 14 14 13 13 13 13 13 13 13 13 13 14 14 14 15 15 15 15 16 16 16 16 16 17 17 17 17 18 18
Wind_Direction
201 205 208 212 213 215 211 201 196 181 176 181 180 181 179 160 155 153 146 138 122 124 117 93 67 48 40 35 31 29 28 29 28 27 26 23 20 15 10 6 3 357 348 341 332 321 315 303 291
205 208 215 219 223 225 213 199 193 178 190 187 183 182 177 165 160 157 153 144 135 132 126 98 65 47 40 34 35 31 26 27 27 25 22 18 16 11 6 4 0 356 349 341 330 317 308 296 283
217 216 218 223 224 225 219 205 200 193 193 195 198 188 176 164 167 168 168 163 156 160 149 107 68 48 38 34 30 27 28 28 25 22 19 15 13 9 5 4 1 356 351 344 335 326 311 293 282
223 223 226 228 227 230 229 219 215 216 214 209 204 186 176 172 173 177 174 170 165 168 167 155 100 43 33 37 29 26 27 26 23 20 17 14 11 9 5 4 2 359 355 350 342 335 318 300 290
226 226 228 227 227 231 233 227 227 222 215 210 209 199 185 178 180 182 180 181 187 184 191 192 100 32 52 36 29 25 24 22 19 21 17 13 11 7 4 3 2 360 356 354 353 344 335 317 300
226 227 228 228 227 228 230 230 227 224 218 214 211 196 194 192 189 187 192 199 205 208 209 212 17 60 41 17 23 23 21 19 19 20 15 10 7 4 3 359 359 359 357 355 352 350 341 325 305
228 229 230 225 227 229 226 226 219 221 216 212 210 204 199 197 199 197 200 205 210 217 229 227 267 48 46 13 12 14 15 15 14 10 7 5 3 2 1 358 357 356 356 357 355 350 345 336 315
231 231 230 228 226 228 228 225 218 218 216 212 210 209 203 197 195 198 194 201 203 210 221 219 221 105 41 4 351 354 2 5 2 5 6 2 2 3 -0 358 355 352 352 354 355 348 348 342 321
229 231 229 228 226 224 226 226 220 218 215 209 209 210 209 203 203 201 200 201 201 205 208 209 223 258 314 322 331 339 347 355 356 0 2 2 1 0 358 355 352 351 352 354 355 351 345 342 331
228 231 229 227 228 225 224 224 220 219 215 209 209 213 208 205 204 204 206 209 209 209 204 211 231 244 272 289 310 323 334 345 351 356 358 358 357 358 357 353 353 353 356 357 358 355 347 341 338
228 230 227 225 230 230 224 223 219 216 213 212 211 212 211 209 206 206 207 212 210 207 207 213 222 239 268 280 295 311 315 330 343 351 357 356 354 357 358 358 355 354 355 356 356 353 348 344 345
226 228 226 225 228 227 221 221 220 219 214 215 213 212 213 211 209 210 213 217 210 206 208 213 222 237 262 285 293 299 305 317 338 348 353 358 357 358 358 359 356 352 352 353 355 355 355 357 356
226 227 225 221 222 223 220 218 220 223 220 217 213 215 216 215 213 218 220 218 215 214 215 214 224 243 260 272 283 294 302 310 329 340 349 353 354 358 358 356 352 351 353 356 359 2 6 3 358
224 225 220 219 221 223 220 219 220 222 219 219 218 219 219 217 214 216 221 221 219 219 221 221 230 244 263 267 266 274 286 300 321 326 344 346 347 351 351 348 351 353 355 358 359 4 6 3 360
224 225 224 222 222 222 218 222 224 225 222 222 222 222 220 219 219 220 223 224 223 223 227 229 236 248 264 268 263 267 279 294 310 316 325 333 340 346 346 349 351 354 355 355 358 4 3 355 351
221 224 225 224 222 222 222 222 226 227 224 223 223 222 221 222 222 224 226 227 227 227 227 229 237 250 262 262 260 261 271 286 295 301 309 319 328 339 343 344 348 353 355 354 355 356 354 349 342
223 225 223 224 224 224 225 225 228 226 227 225 222 221 222 223 226 227 226 224 228 228 225 228 238 251 256 256 257 261 269 275 282 286 290 303 316 325 332 335 339 346 348 349 349 348 347 345 338
224 225 224 227 230 229 229 228 229 229 228 226 222 220 222 227 227 228 223 220 222 222 222 226 235 248 254 252 254 259 266 267 274 279 280 290 300 309 316 323 326 335 342 342 343 342 341 339 337
222 224 227 229 234 235 235 230 229 228 226 226 224 223 223 225 227 224 221 220 219 220 223 229 240 251 253 253 254 258 264 268 272 278 283 284 291 299 305 313 320 328 333 335 336 335 336 336 335
220 227 229 233 236 238 238 232 229 229 226 226 224 223 223 225 225 221 223 224 222 223 228 233 240 248 253 257 257 260 262 267 271 276 278 283 289 295 298 307 319 320 322 330 332 331 332 331 330
223 226 230 236 240 241 240 234 232 228 227 226 225 225 224 226 227 227 226 228 227 228 230 233 241 247 251 254 257 261 262 265 270 277 283 288 291 294 300 309 314 316 318 322 324 324 324 325 324
224 227 229 235 243 241 240 237 232 228 227 225 227 226 226 226 228 227 228 229 228 229 232 237 246 250 251 254 254 257 261 262 269 274 280 287 292 297 303 307 311 314 316 318 318 317 318 319 320
222 228 232 236 241 241 241 239 231 233 228 229 230 227 226 228 228 227 228 227 228 231 236 243 246 250 253 256 256 255 258 261 265 269 276 285 289 294 300 304 306 307 309 310 312 313 312 312 313
224 230 233 239 244 245 245 244 235 233 229 227 231 229 229 227 225 225 226 228 230 235 242 245 245 246 250 254 256 255 258 262 265 269 276 282 286 292 297 299 300 303 305 306 308 310 309 308 309
227 231 238 243 247 248 246 243 236 234 232 229 230 230 227 221 222 224 227 230 234 237 240 242 242 245 249 252 253 254 259 262 266 270 274 280 284 287 291 295 298 300 303 304 304 306 306 307 308
231 235 239 246 250 248 246 242 237 237 237 235 231 230 226 220 221 224 229 233 238 239 241 243 246 247 248 250 253 257 260 264 267 269 275 280 284 286 288 290 294 296 298 300 301 301 301 304 306
230 237 242 245 249 249 248 248 241 238 236 236 231 229 225 221 223 230 234 238 240 240 240 243 244 244 247 251 255 259 261 266 269 270 277 281 284 284 286 288 290 294 295 295 296 298 297 299 301
236 238 243 246 248 253 256 248 241 240 241 239 234 229 225 227 229 233 237 240 241 240 240 240 239 242 247 251 256 259 263 267 271 273 278 281 282 284 286 289 290 291 292 293 295 297 297 298 300
236 239 242 249 255 257 258 252 244 241 242 239 238 232 228 229 234 237 237 240 240 240 240 242 243 246 249 252 257 260 263 269 273 275 278 280 282 284 287 290 291 291 291 293 293 295 296 297 297
242 247 248 249 252 253 256 257 251 243 238 237 237 235 233 235 238 239 239 242 242 242 244 245 245 248 250 255 259 261 264 271 274 276 278 279 281 284 286 290 291 292 293 294 293 294 295 295 296
Height
5870 5873 5876 5878 5880 5881 5880 5881 5882 5883 5884 5885 5886 5887 5888 5889 5891 5894 5893 5892 5893 5894 5894 5893 5893 5893 5893 5892 5891 5891 5890 5889 5888 5888 5887 5887 5886 5886 5885 5884 5884 5883 5882 5882 5882 5881 5881 5882 5882
5871 5874 5877 5878 5879 5880 5881 5881 5882 5883 5884 5885 5886 5886 5887 5888 5890 5891 5892 5892 5893 5894 5894 5894 5894 5894 5893 5893 5892 5891 5891 5890 5889 5889 5888 5887 5886 5886 5885 5884 5883 5883 5882 5881 5881 5881 5881 5881 5881
5872 5874 5876 5877 5878 5879 5880 5881 5882 5883 5884 5885 5886 5886 5888 5888 5890 5891 5892 5893 5893 5894 5894 5894 5895 5894 5894 5893 5893 5892 5891 5890 5890 5889 5888 5887 5887 5886 5885 5884 5883 5882 5882 5881 5880 5880 5880 5880 5880
5872 5874 5876 5877 5877 5879 5880 5881 5882 5883 5884 5885 5886 5887 5888 5889 5890 5891 5892 5893 5893 5894 5894 5895 5894 5894 5894 5894 5893 5892 5892 5891 5890 5889 5889 5888 5887 5886 5885 5884 5883 5882 5881 5880 5880 5879 5879 5879 5879
5871 5873 5875 5875 5876 5878 5879 5880 5881 5883 5884 5884 5885 5887 5887 5888 5889 5891 5892 5893 5893 5894 5894 5894 5894 5894 5894 5894 5893 5893 5892 5891 5891 5890 5889 5888 5887 5886 5885 5884 5883 5882 5881 5880 5879 5878 5878 5878 5878
5869 5871 5874 5874 5876 5877 5878 5879 5880 5882 5883 5884 5885 5886 5887 5888 5889 5891 5892 5893 5893 5894 5894 5894 5894 5894 5894 5894 5894 5893 5893 5892 5891 5890 5889 5889 5888 5887 5885 5884 5883 5882 5881 5880 5879 5878 5877 5877 5877
5868 5870 5871 5873 5875 5876 5877 5878 5880 5881 5883 5884 5885 5886 5886 5888 5889 5890 5891 5892 5893 5894 5894 5894 5894 5894 5894 5894 5894 5893 5893 5892 5891 5891 5890 5889 5888 5887 5886 5884 5883 5882 5881 5880 5879 5877 5876 5876 5876
5865 5868 5870 5872 5873 5875 5876 5877 5878 5880 5881 5883 5885 5885 5886 5888 5889 5890 5891 5892 5893 5893 5894 5894 5894 5894 5894 5894 5894 5894 5893 5892 5892 5891 5890 5889 5888 5887 5886 5884 5883 5882 5881 5879 5878 5877 5876 5876 5875
5864 5867 5868 5870 5872 5874 5875 5876 5877 5879 5880 5882 5883 5885 5886 5887 5889 5890 5891 5892 5892 5893 5893 5894 5894 5894 5894 5894 5894 5894 5893 5892 5892 5891 5890 5889 5888 5887 5886 5884 5883 5882 5880 5879 5878 5877 5876 5875 5875
5862 5864 5866 5868 5870 5872 5873 5875 5877 5878 5879 5881 5882 5884 5885 5887 5888 5889 5890 5891 5892 5892 5893 5893 5894 5894 5894 5894 5893 5893 5893 5892 5892 5891 5890 5889 5888 5887 5885 5884 5883 5881 5880 5879 5878 5876 5875 5875 5874
5859 5862 5864 5866 5868 5870 5871 5873 5875 5877 5878 5880 5882 5883 5884 5886 5887 5888 5889 5890 5891 5891 5892 5893 5893 5893 5893 5893 5893 5893 5892 5892 5891 5891 5890 5889 5888 5887 5885 5884 5883 5881 5880 5879 5878 5876 5875 5875 5874
5857 5859 5862 5864 5866 5868 5870 5871 5873 5875 5877 5879 5880 5881 5883 5885 5886 5887 5888 5889 5890 5891 5891 5892 5892 5893 5893 5892 5892 5892 5892 5891 5891 5890 5890 5889 5888 5887 5885 5884 5883 5881 5880 5879 5878 5876 5875 5874 5874
5855 5857 5860 5862 5864 5866 5868 5870 5871 5873 5875 5877 5878 5880 5882 5883 5885 5886 5887 5888 5889 5890 5890 5891 5892 5892 5892 5892 5892 5892 5891 5891 5891 5890 5889 5889 5888 5887 5885 5884 5883 5881 5880 5879 5877 5876 5875 5875 5874
5853 5855 5858 5860 5862 5864 5866 5868 5870 5872 5873 5875 5877 5878 5880 5882 5883 5885 5886 5887 5888 5888 5889 5890 5891 5891 5891 5891 5891 5891 5891 5890 5890 5889 5889 5888 5888 5887 5885 5884 5883 5881 5880 5879 5878 5876 5876 5875 5874
5851 5854 5857 5859 5861 5862 5865 5867 5869 5870 5872 5874 5875 5877 5879 5880 5882 5883 5884 5885 5886 5887 5888 5889 5889 5890 5890 5890 5890 5890 5890 5890 5889 5889 5889 5888 5887 5886 5885 5884 5883 5881 5880 5879 5877 5876 5876 5875 5874
5850 5853 5855 5857 5859 5861 5865 5866 5866 5868 5870 5872 5873 5875 5877 5878 5880 5881 5882 5884 5885 5886 5887 5888 5888 5889 5889 5889 5889 5889 5889 5889 5889 5888 5888 5887 5887 5886 5885 5884 5883 5881 5880 5879 5877 5877 5876 5875 5874
5849 5851 5853 5856 5857 5859 5861 5863 5865 5866 5868 5870 5871 5873 5875 5876 5878 5879 5880 5882 5883 5884 5885 5886 5887 5887 5888 5888 5888 5888 5888 5888 5888 5887 5887 5887 5886 5885 5884 5883 5882 5881 5880 5879 5878 5877 5876 5875 5874
5848 5850 5852 5854 5856 5857 5859 5861 5863 5864 5866 5868 5869 5871 5873 5874 5876 5877 5878 5880 5881 5882 5884 5885 5885 5886 5886 5887 5887 5887 5887 5887 5887 5887 5886 5886 5885 5885 5884 5883 5882 5881 5880 5879 5877 5876 5875 5874 5873
5846 5848 5850 5852 5854 5856 5857 5859 5861 5862 5864 5865 5867 5869 5871 5872 5874 5875 5877 5878 5879 5881 5882 5883 5883 5884 5884 5885 5885 5886 5886 5886 5886 5885 5885 5885 5884 5884 5883 5882 5881 5880 5879 5878 5877 5876 5875 5874 5873
5845 5847 5849 5851 5852 5854 5855 5857 5858 5860 5861 5863 5865 5866 5868 5870 5871 5873 5875 5876 5877 5879 5880 5881 5882 5882 5883 5883 5884 5884 5884 5884 5884 5884 5884 5883 5883 5882 5882 5881 5880 5879 5878 5877 5876 5875 5874 5873 5872
5844 5846 5848 5849 5850 5851 5853 5855 5856 5858 5859 5861 5862 5864 5866 5867 5869 5871 5872 5874 5875 5877 5878 5879 5880 5880 5881 5881 5882 5882 5883 5883 5883 5883 5882 5882 5881 5881 5880 5880 5879 5878 5877 5876 5875 5874 5873 5872 5871
5843 5845 5846 5847 5849 5850 5852 5853 5855 5855 5857 5858 5860 5862 5863 5865 5867 5869 5870 5872 5873 5875 5876 5877 5877 5878 5879 5879 5880 5880 5881 5881 5881 5881 5881 5881 5880 5879 5879 5878 5877 5876 5876 5875 5874 5873 5872 5871 5870
5842 5843 5845 5846 5847 5848 5849 5851 5853 5853 5855 5856 5858 5859 5861 5863 5865 5866 5868 5869 5871 5872 5873 5874 5875 5876 5876 5877 5878 5878 5879 5879 5879 5879 5879 5879 5878 5878 5877 5876 5876 5875 5874 5873 5872 5871 5871 5869 5868
5841 5843 5843 5844 5845 5847 5848 5848 5851 5851 5852 5854 5855 5857 5858 5860 5862 5864 5865 5867 5868 5869 5871 5872 5872 5873 5874 5875 5875 5876 5876 5877 5877 5877 5877 5877 5877 5876 5876 5875 5874 5873 5873 5872 5871 5870 5869 5868 5866
5840 5842 5843 5843 5844 5845 5846 5846 5849 5849 5850 5851 5853 5854 5856 5858 5859 5861 5863 5865 5866 5867 5868 5869 5870 5871 5871 5872 5873 5873 5874 5874 5875 5875 5875 5875 5874 5874 5874 5873 5872 5872 5871 5870 5868 5868 5867 5865 5864
5839 5841 5842 5843 5843 5843 5844 5844 5847 5847 5848 5849 5850 5852 5853 5855 5857 5859 5861 5862 5863 5864 5865 5866 5867 5868 5869 5869 5870 5871 5871 5872 5872 5872 5872 5872 5872 5872 5871 5871 5870 5869 5868 5867 5866 5865 5864 5863 5862
5838 5839 5840 5841 5841 5842 5842 5844 5845 5845 5846 5847 5848 5850 5851 5853 5855 5857 5858 5859 5860 5861 5862 5863 5864 5865 5866 5867 5867 5868 5869 5869 5870 5870 5870 5870 5870 5869 5868 5868 5867 5866 5865 5864 5863 5862 5861 5860 5859
5837 5838 5839 5839 5839 5840 5841 5842 5843 5843 5844 5845 5846 5848 5849 5851 5853 5854 5855 5856 5858 5859 5860 5861 5861 5862 5863 5864 5865 5865 5866 5866 5867 5867 5867 5867 5866 5866 5865 5865 5864 5863 5862 5861 5860 5859 5858 5857 5856
5837 5837 5837 5838 5839 5839 5840 5843 5841 5842 5842 5843 5845 5846 5847 5849 5850 5851 5853 5854 5855 5856 5857 5858 5859 5859 5860 5861 5862 5862 5863 5863 5864 5864 5864 5863 5863 5863 5862 5861 5860 5859 5859 5858 5857 5856 5854 5853 5852
5835 5835 5836 5837 5837 5838 5838 5842 5839 5839 5840 5841 5843 5844 5845 5846 5848 5849 5850 5851 5852 5853 5854 5855 5856 5856 5857 5858 5859 5859 5860 5860 5860 5860 5860 5860 5860 5859 5859 5858 5857 5856 5855 5854 5853 5852 5850 5849 5848